Regional Weather Roundup
Issued by NWS

Home | Current Version | Previous Version | Graphics & Text | Print | Product List | Glossary On
Versions: 1 2 3 4 5 6 7 8 9 10 11 12 13 14 15 16 17 18 19 20 21 22 23 24 25 26 27 28 29 30 31 32 33 34 35 36 37 38 39 40 41 42 43 44 45 46 47 48 49 50
000
ASUS43 KOAX 101202
RWRNE

WEATHER ROUNDUP FOR NEBRASKA
NATIONAL WEATHER SERVICE OMAHA NE
600 AM CST SUN DEC 10 2017

NOTES: SATELLITE DATA IS BEING USED TO AUGMENT CLOUD COVER ABOVE
       12000 FEET.
       "FAIR" INDICATES FEW OR NO CLOUDS BELOW 12,000 FEET WITH NO
       SIGNIFICANT WEATHER AND/OR OBSTRUCTIONS TO VISIBILITY.


NEZ001>004-019>022-054>056-101300-
NEBRASKA PANHANDLE

CITY           SKY/WX    TMP DP  RH WIND       PRES   REMARKS
SCOTTSBLUFF    CLOUDY    25  11  55 NW9       30.34S WCI  15
6HR MIN TEMP:  23; 6HR MAX TEMP:  32;

ALLIANCE       CLEAR     30  10  43 W14       30.28S WCI  19
6HR MIN TEMP:  24; 6HR MAX TEMP:  34;

CHADRON        CLEAR     35  12  38 W14       30.29R WCI  26
6HR MIN TEMP:  35; 6HR MAX TEMP:  41;

GORDON         FAIR      39  15  37 W18       30.23R WCI  29
6HR MIN TEMP:  37; 6HR MAX TEMP:  39;

KIMBALL        CLOUDY    34   6  30 NW16      30.35S WCI  23
SIDNEY         CLEAR     33   8  35 W13       30.32S WCI  24
6HR MIN TEMP:  28; 6HR MAX TEMP:  37;

$$

NEZ057>060-069>072-079>082-101300-
SOUTHWEST NEBRASKA

CITY           SKY/WX    TMP DP  RH WIND       PRES   REMARKS
NORTH PLATTE   CLOUDY    23  14  68 W7        30.23S WCI  15
6HR MIN TEMP:  19; 6HR MAX TEMP:  38;

IMPERIAL       CLEAR     34   9  35 W16       30.28S WCI  24
6HR MIN TEMP:  33; 6HR MAX TEMP:  42;

LEXINGTON      CLEAR     36  14  40 NW17      30.20R WCI  25
MCCOOK         CLEAR     36  12  37 W18       30.25R WCI  26
6HR MIN TEMP:  36; 6HR MAX TEMP:  41;

OGALLALA       CLEAR     34  12  40 W8        30.27S WCI  27
$$

NEZ005>010-023>029-035>040-094-101300-
NORTH CENTRAL NEBRASKA

CITY           SKY/WX    TMP DP  RH WIND       PRES   REMARKS
VALENTINE      CLEAR     34  17  50 W10       30.17R WCI  26
6HR MIN TEMP:  33; 6HR MAX TEMP:  42;

AINSWORTH      CLEAR     37  18  46 W16       30.14S WCI  28
BROKEN BOW     CLEAR     46  13  26 NW22G31   30.15R
6HR MIN TEMP:  43; 6HR MAX TEMP:  46;

O`NEILL        CLEAR     41  19  41 NW9       30.08S
ORD            CLEAR     41  16  36 NW13      30.11R
6HR MIN TEMP:  41; 6HR MAX TEMP:  44;

THEDFORD       CLEAR     36  15  43 W9        30.20R WCI  29
$$

NEZ041-046>049-061>064-073>077-083>087-101300-
SOUTH CENTRAL NEBRASKA

CITY           SKY/WX    TMP DP  RH WIND       PRES   REMARKS
GRAND ISLAND   CLEAR     38  17  42 W12       30.12R WCI  30
6HR MIN TEMP:  35; 6HR MAX TEMP:  43;

AURORA         CLEAR     39  18  42 W12       30.10R WCI  31
HASTINGS       CLEAR     37  15  40 W15       30.13S WCI  28
6HR MIN TEMP:  34; 6HR MAX TEMP:  38;

HEBRON         CLEAR     37  17  43 W9        30.13R WCI  31
HOLDREGE       CLEAR     31  15  51 W8        30.17S WCI  24
KEARNEY        CLEAR     38  13  35 W14       30.16R WCI  30
$$

NEZ011>018-030>034-042>045-101300-
NORTHEAST NEBRASKA

CITY           SKY/WX    TMP DP  RH WIND       PRES   REMARKS
NORFOLK        CLEAR     40  20  44 NW14      30.04R WCI  32
6HR MIN TEMP:  33; 6HR MAX TEMP:  41;

ALBION         CLEAR     37  18  47 NW10      30.07S WCI  29
BLAIR          CLEAR     36  25  64 NW7       30.01R WCI  30
COLUMBUS       CLEAR     35  21  56 NW9       30.06S WCI  28
FREMONT        CLEAR     32  23  69 NW8       30.04R WCI  25
TEKAMAH        CLOUDY    35  23  61 NW10      30.02R WCI  27
6HR MIN TEMP:  24; 6HR MAX TEMP:  37;

WAYNE          CLOUDY    34  22  60 NW8       30.04R WCI  28
$$

NEZ050>053-065>068-078-088>093-101300-
SOUTHEAST NEBRASKA

CITY           SKY/WX    TMP DP  RH WIND       PRES   REMARKS
LINCOLN        CLEAR     37  19  48 NW3       30.08R
6HR MIN TEMP:  31; 6HR MAX TEMP:  41;

OMAHA EPPLEY   PTCLDY    39  23  52 NW14G20   30.01R WCI  31
6HR MIN TEMP:  25; 6HR MAX TEMP:  39;

BEATRICE       CLEAR     32  19  60 W6        30.08R WCI  26
FALLS CITY     CLEAR     35  20  54 W14       30.04S WCI  26
6HR MIN TEMP:  22; 6HR MAX TEMP:  36;

NEBRASKA CITY  CLEAR     36  23  58 W14       30.03S WCI  27
PLATTSMOUTH    CLEAR     35  24  62 W10       30.03R WCI  27
$$

NEZ044-045-051>053-067-101300-
OMAHA AREA

CITY           SKY/WX    TMP DP  RH WIND       PRES   REMARKS
OMAHA EPPLEY   PTCLDY    39  23  52 NW14G20   30.01R WCI  31
6HR MIN TEMP:  25; 6HR MAX TEMP:  39;

BLAIR          CLEAR     36  25  64 NW7       30.01R WCI  30
FREMONT        CLEAR     32  23  69 NW8       30.04R WCI  25
MILLARD        CLOUDY    35  23  62 NW3       30.03R
OFFUTT AFB     CLEAR     28  20  71 W6        30.02R WCI  22
PLATTSMOUTH    CLEAR     35  24  62 W10       30.03R WCI  27
WAHOO          FAIR      39  21  48 NW13      30.04R WCI  32
$$




USA.gov is the U.S. government's official web portal to all federal, state and local government web resources and services.